Mobridge, SD

3:28 AM CDT on August 22, 2017 (GMT -0500)
Mobridge Municipal

Weather History for KMBG - March, 2013

Change the Weather History Date:

Thursday, March 28, 2013

  Actual Average Record
Temperature  
Mean Temperature 39 °F 37 °F  
Max Temperature 57 °F 49 °F 83 °F (1946)
Min Temperature 20 °F 26 °F -4 °F (1913)
Degree Days  
Heating Degree Days 26 28  
Month to date heating degree days 1125 947  
Since 1 July heating degree days 6941 6922  
Cooling Degree Days 0 0  
Month to date cooling degree days 0 0  
Year to date cooling degree days 0 0  
Moisture  
Dew Point 25 °F    
Average Humidity 60    
Maximum Humidity 92    
Minimum Humidity 27    
Precipitation  
Precipitation 0.00 in 0.04 in 0.70 in (1931)
Month to date precipitation 0.38 0.78  
Year to date precipitation 1.34 1.51  
Snow  
Snow 0.00 in - - ()
Month to date snowfall 4.7  
Since 1 July snowfall 29.0  
Snow Depth 0.00 in    
Sea Level Pressure  
Sea Level Pressure 30.15 in    
Wind  
Wind Speed 9 mph (ESE)    
Max Wind Speed 18 mph    
Max Gust Speed 21 mph    
Visibility 8 miles    
Events      
T = Trace of Precipitation, MM = Missing Value Source: NWS Daily Summary

Daily Weather History Graph

Daily Weather History Graph

Search for Another Location

Airport or City:

Trip Planner

Search our weather history database for the weather conditions in past years. The results will help you decide how hot, cold, wet, or windy it might be!

Date:

Astronomy

Mar. 28, 2013 Rise Set
Actual Time 7:28 AM CDT 8:05 PM CDT
Civil Twilight 6:59 AM CDT 8:34 PM CDT
Nautical Twilight 6:23 AM CDT 9:10 PM CDT
Astronomical Twilight 5:47 AM CDT 9:47 PM CDT
Moon 10:06 PM CDT (3/28) 7:52 AM CDT (3/28)
Length of Visible Light 13h 35m
Length of Day
12h 36m
Full, 98% of the Moon is Illuminated
Mar 28
Full
Apr 2
Last Quarter
Apr 10
New
Apr 18
First Quarter
Apr 25
Full

Hourly Weather History & Observations

Time (CDT) Temp. Windchill Dew Point Humidity Pressure Visibility Wind Dir Wind Speed Gust Speed Precip Events Conditions
12:52 AM 28.0 °F 20.0 °F 25.0 °F 88% 30.17 in 7.0 mi East 8.1 mph - N/A   Clear
1:52 AM 27.0 °F 20.5 °F 24.1 °F 89% 30.18 in 6.0 mi East 5.8 mph - N/A   Clear
2:52 AM 23.0 °F - 19.9 °F 88% 30.18 in 4.0 mi Calm Calm - N/A   Clear
3:52 AM 24.1 °F 19.7 °F 21.9 °F 91% 30.17 in 6.0 mi SSE 3.5 mph - N/A   Clear
4:52 AM 25.0 °F 18.1 °F 21.9 °F 88% 30.15 in 5.0 mi East 5.8 mph - N/A   Clear
5:52 AM 21.9 °F 17.2 °F 19.9 °F 92% 30.15 in 6.0 mi South 3.5 mph - N/A   Clear
6:52 AM 21.0 °F 16.2 °F 19.0 °F 92% 30.15 in 5.0 mi SSE 3.5 mph - N/A   Scattered Clouds
7:52 AM 24.1 °F - 21.0 °F 88% 30.16 in 4.0 mi Calm Calm - N/A   Mostly Cloudy
8:52 AM 27.0 °F 23.0 °F 23.0 °F 85% 30.16 in 7.0 mi East 3.5 mph - N/A   Overcast
9:52 AM 34.0 °F 26.6 °F 28.9 °F 82% 30.15 in 10.0 mi East 9.2 mph - N/A   Partly Cloudy
10:52 AM 41.0 °F 37.1 °F 30.0 °F 65% 30.15 in 10.0 mi ESE 5.8 mph - N/A   Mostly Cloudy
11:52 AM 48.0 °F - 30.9 °F 52% 30.15 in 10.0 mi ESE 8.1 mph - N/A   Mostly Cloudy
12:52 PM 53.1 °F - 25.0 °F 34% 30.13 in 10.0 mi ESE 16.1 mph - N/A   Clear
1:52 PM 55.0 °F - 23.0 °F 29% 30.12 in 10.0 mi ESE 13.8 mph 20.7 mph N/A   Mostly Cloudy
2:52 PM 55.9 °F - 23.0 °F 28% 30.12 in 10.0 mi SE 13.8 mph 20.7 mph N/A   Clear
3:52 PM 55.9 °F - 24.1 °F 29% 30.11 in 10.0 mi SE 13.8 mph - N/A   Clear
4:52 PM 55.0 °F - 26.1 °F 33% 30.11 in 10.0 mi ESE 13.8 mph - N/A   Clear
5:52 PM 52.0 °F - 27.0 °F 38% 30.11 in 10.0 mi East 16.1 mph - N/A   Clear
6:52 PM 48.9 °F - 28.9 °F 46% 30.13 in 10.0 mi East 12.7 mph - N/A   Clear
7:52 PM 43.0 °F 36.8 °F 30.0 °F 60% 30.14 in 10.0 mi East 11.5 mph - N/A   Clear
8:52 PM 37.9 °F 30.0 °F 30.0 °F 73% 30.16 in 10.0 mi East 12.7 mph - N/A   Clear
9:52 PM 34.0 °F 25.5 °F 30.0 °F 85% 30.17 in 6.0 mi East 11.5 mph - N/A   Clear
10:52 PM 32.0 °F 23.0 °F 28.9 °F 88% 30.17 in 6.0 mi East 11.5 mph - N/A   Clear
11:52 PM 30.9 °F 21.7 °F 28.0 °F 89% 30.16 in 5.0 mi East 11.5 mph - N/A   Clear